Satellite: UO-22
Catalog number: 21575
Epoch time:      05006.31355642
Element set:     297
Inclination:       98.2210 deg
RA of node:       337.9530 deg
Eccentricity:    0.0006882
Arg of perigee:   211.5344 deg
Mean anomaly:     148.5437 deg
Mean motion:   14.39450880 rev/day
Decay rate:        6.0e-07 rev/day^2
Epoch rev:           70721
Checksum:              286

Satellite: KO-23
Catalog number: 22077
Epoch time:      05006.82615334
Element set:     359
Inclination:       66.0869 deg
RA of node:       124.3810 deg
Eccentricity:    0.0013629
Arg of perigee:   294.6415 deg
Mean anomaly:      65.3174 deg
Mean motion:   12.86427740 rev/day
Decay rate:       -3.7e-07 rev/day^2
Epoch rev:           58283
Checksum:              304

Satellite: AO-27
Catalog number: 22825
Epoch time:      05006.81505478
Element set:      32
Inclination:       98.2458 deg
RA of node:        10.9152 deg
Eccentricity:    0.0008853
Arg of perigee:    27.0881 deg
Mean anomaly:     333.0735 deg
Mean motion:   14.29107629 rev/day
Decay rate:       1.07e-06 rev/day^2
Epoch rev:           58817
Checksum:              298

Satellite: IO-26
Catalog number: 22826
Epoch time:      05005.61367318
Element set:     699
Inclination:       98.2408 deg
RA of node:        11.0676 deg
Eccentricity:    0.0009575
Arg of perigee:    27.7518 deg
Mean anomaly:     332.4169 deg
Mean motion:   14.29345830 rev/day
Decay rate:        5.4e-07 rev/day^2
Epoch rev:           58806
Checksum:              319

Satellite: KO-25
Catalog number: 22828
Epoch time:      05005.99660920
Element set:     960
Inclination:       98.2353 deg
RA of node:        11.6537 deg
Eccentricity:    0.0010084
Arg of perigee:     5.2322 deg
Mean anomaly:     354.9036 deg
Mean motion:   14.29662120 rev/day
Decay rate:       -3.6e-07 rev/day^2
Epoch rev:           55634
Checksum:              282

Satellite: TO-31
Catalog number: 25396
Epoch time:      05006.83346731
Element set:     145
Inclination:       98.5528 deg
RA of node:        78.7748 deg
Eccentricity:    0.0001628
Arg of perigee:   294.6004 deg
Mean anomaly:      65.5016 deg
Mean motion:   14.23652176 rev/day
Decay rate:       -4.3e-07 rev/day^2
Epoch rev:           33745
Checksum:              306

Satellite: GO-32
Catalog number: 25397
Epoch time:      05006.00729516
Element set:     643
Inclination:       98.5436 deg
RA of node:        75.7925 deg
Eccentricity:    0.0000884
Arg of perigee:   356.7471 deg
Mean anomaly:       3.3701 deg
Mean motion:   14.23064960 rev/day
Decay rate:       -5.0e-07 rev/day^2
Epoch rev:           33726
Checksum:              295

Satellite: UO-36
Catalog number: 25693
Epoch time:      05006.47487614
Element set:     801
Inclination:       64.5598 deg
RA of node:        60.3184 deg
Eccentricity:    0.0039808
Arg of perigee:   232.9130 deg
Mean anomaly:     126.8337 deg
Mean motion:   14.78448573 rev/day
Decay rate:       2.64e-06 rev/day^2
Epoch rev:           30791
Checksum:              325

Satellite: SO-41
Catalog number: 26545
Epoch time:      05006.82426645
Element set:     969
Inclination:       64.5587 deg
RA of node:        74.7181 deg
Eccentricity:    0.0033004
Arg of perigee:   333.0638 deg
Mean anomaly:      26.8669 deg
Mean motion:   14.79980415 rev/day
Decay rate:       2.51e-06 rev/day^2
Epoch rev:           23104
Checksum:              311

Satellite: MO-46
Catalog number: 26548
Epoch time:      05006.17496217
Element set:      72
Inclination:       64.5584 deg
RA of node:        61.3404 deg
Eccentricity:    0.0031664
Arg of perigee:   321.3346 deg
Mean anomaly:      38.5453 deg
Mean motion:   14.82571151 rev/day
Decay rate:       5.69e-06 rev/day^2
Epoch rev:           23126
Checksum:              291

Satellite: SO-42
Catalog number: 26549
Epoch time:      05006.69218863
Element set:      29
Inclination:       64.5586 deg
RA of node:        82.8707 deg
Eccentricity:    0.0033432
Arg of perigee:   341.6958 deg
Mean anomaly:      18.2937 deg
Mean motion:   14.78866436 rev/day
Decay rate:       3.42e-06 rev/day^2
Epoch rev:           23087
Checksum:              336

Satellite: NO-44
Catalog number: 26931
Epoch time:      05006.82418394
Element set:     941
Inclination:       67.0550 deg
RA of node:       283.3772 deg
Eccentricity:    0.0007389
Arg of perigee:   265.5676 deg
Mean anomaly:      94.4540 deg
Mean motion:   14.29353319 rev/day
Decay rate:        1.0e-08 rev/day^2
Epoch rev:           17070
Checksum:              306

Satellite: AO-49
Catalog number: 27605
Epoch time:      05006.16784742
Element set:     629
Inclination:       64.5586 deg
RA of node:       267.9260 deg
Eccentricity:    0.0085702
Arg of perigee:   271.6815 deg
Mean anomaly:      87.4461 deg
Mean motion:   14.72014989 rev/day
Decay rate:       2.19e-06 rev/day^2
Epoch rev:           11000
Checksum:              317

Satellite: SO-50
Catalog number: 27607
Epoch time:      05006.83618745
Element set:     611
Inclination:       64.5593 deg
RA of node:       270.6435 deg
Eccentricity:    0.0086559
Arg of perigee:   270.6494 deg
Mean anomaly:      88.4654 deg
Mean motion:   14.70850737 rev/day
Decay rate:       2.26e-06 rev/day^2
Epoch rev:           11000
Checksum:              311

